Other Surface Observations
Issued by NWS

Home | Current Version | Previous Version | Text Only | Print | Product List | Glossary On
Versions: 1 2 3 4 5 6 7 8 9 10 11 12 13 14 15 16 17 18 19 20 21 22 23 24 25 26 27 28 29 30 31 32 33 34 35 36 37 38 39 40 41 42 43 44 45 46 47 48 49 50
000
SXUS52 KTAE 250718
OSOTAE
OSOTAE
North Florida/South Alabama/Southwest Georgia Weather Roundup
National Weather Service Tallahassee Florida
200 AM EST SAT FEB 25 2017

Note: "fair" indicates few or no clouds below 12,000 feet with no
significant weather and/or obstructions to visibility.

!FLZ017-115-028-034-025-250800
...North Florida...

CITY           SKY/WX    TMP DP  RH WIND       PRES   REMARKS
TALLAHASSEE    FOG       60  60 100 W5        29.82S VSB 3/4
APALACHICOLA   CLEAR     67  66  97 SW7       29.82F
PERRY          PTCLDY    63  62  97 SE5       29.84F
CROSS CITY     CLOUDY    63  63 100 W5        29.85S
JACKSONVILLE   FOG       59  59 100 CALM      29.83F VSB 3/4
$$

!FLZ112-006-005-002-011-250800
...Florida Panhandle...

CITY           SKY/WX    TMP DP  RH WIND       PRES   REMARKS
MARIANNA       CLOUDY    65  64  97 W7        29.83R
BONIFAY        CLOUDY    63  63 100 W3        29.84S FOG
PANAMA CITY NW FOG       58  57  97 CALM      29.83S VSB 1/2
TYNDALL AFB    CLEAR     65  64  95 W5        29.84R
TYND DRONE APT FAIR      66  65  98 CALM      29.83R
DE FUNIAK SPR  CLOUDY    64  64 100 CALM      29.85R FOG
EGLIN AFB      MOCLDY    66  65  97 CALM      29.84S
DESTIN         PTCLDY    71  71 100 SW5       29.84R
HURLBURT       PTCLDY    68  60  77 W5        29.83R
CRESTVIEW      CLOUDY    65  64  97 SW6       29.86R
PENSACOLA      LGT RAIN  69  66  90 SW6       29.84R
$$

!ALZ063-066-250800
...South Alabama...

CITY           SKY/WX    TMP DP  RH WIND       PRES   REMARKS
DOTHAN         CLOUDY    64  64 100 SW9       29.86S
OZARK CAIRNS   CLOUDY    63  63 100 SW8       29.83S
FT RUCKER HELI CLOUDY    64  62  95 SW7       29.83R
RUCKER HELI 3  CLOUDY    64  62  95 SE5       29.83R
RUCKER HELI 2  CLOUDY    64  63  94 W8        29.83R
FLORALA APT    CLOUDY    65  62  90 VRB6      29.86R
ANDALUSIA      MOCLDY    67  62  84 SW6       29.83R
TROY           MOCLDY    60  60 100 S5        29.83R
EUFALA         FAIR      56  55  97 S3        29.81R
MOBILE         MOCLDY    66  63  90 SW7       29.86R
$$

!GAZ120>161-250800
...Southwest and South Central Georgia...

CITY           SKY/WX    TMP DP  RH WIND       PRES   REMARKS
THOMASVILLE    FAIR      61  61 100 CALM      29.82S
BAINBRIDGE     PTCLDY    63  59  88 W8        29.83R
MOODY AFB      CLEAR     61  56  84 S5        29.81S
VALDOSTA       CLEAR     62  59  90 S5        29.82F
MOULTRIE       CLEAR     63  59  88 CALM      29.82S
BLAKELY        CLEAR     64  61  88 CALM      29.83S
ALBANY         CLEAR     62  59  90 W5        29.83R
TIFTON         FAIR      59  59 100 CALM      29.81S
FITZGERALD     FAIR      62  62  98 CALM      29.84S
CORDELE        FAIR      62  58  86 CALM      29.82S
AMERICUS       PTSUNNY   61  54  77 W5        29.83S
HOMERVILLE     FAIR      64  63  94 S3        29.83F
$$

!GMZ750-755-770-775-250800
...Coastal and Buoy Obs...

STATION/POSITION TIME  TEMP    WIND        PRES    VSBY  WAVE
                       AIR SEA DIR/SP/G                  HT/PER
                 (UTC) (F)     (DEG/KT/KT) (MB)    (MI)  (FT/S)
KEATON BEACH     0700   67     200/  7/  8 1009.8F
CEDAR KEY        0700   64     230/  4/  5 1011.1F
C TOWER          0700   67     220/  9/ 11 1010.3F
APALACHICOLA BUO 0650   69 70  260/  8/ 10 1010.6F         1
PANAMA CITY BUOY 0650   71 71              1010.6F         1/ 4
MOBILE BUOY      NOT AVBL
ORANGE BCH AL BU 0650   70 69  240/ 10/ 12 1010.5R         1/ 3
$$




USA.gov is the U.S. government's official web portal to all federal, state and local government web resources and services.